Lexington Weather

Lexington, Massachusetts, USA

23°F
3/3/2021 2:55am 
  • Lexington Conditions: Few Clouds
  • Temperature: 22.8°F / -5.1°CWarmer 1.6°F than last hour.
  • Dew Point: 10.6°FIncreased 2.2°Fsince last hour.
  • Relative Humidity: 59%Increased 2.0% since last hour.
  • Wind: Wind from WSW WSW 1 mph, 10-min avg: 2 mph, gust: 5 mph
  • Barometer: 29.87 inFalling 0.03  inHg/hr Falling Slowly
  • Visibility: 10 miles
  • Snow Today: 0.0 in
  •   

Regional Weather Roundup
for Boston / Norton, MA

        
000
ASUS41 KBOX 011404
RWRBOX

REGIONAL WEATHER ROUNDUP
NATIONAL WEATHER SERVICE BOSTON/NORTON MA
900 AM EST MON MAR 01 2021

NOTE:  "FAIR" INDICATES FEW OR NO CLOUDS BELOW 12,000 FEET WITH NO 
SIGNIFICANT WEATHER AND/OR OBSTRUCTIONS TO VISIBILITY.

MAZALL-011500-
EASTERN MASSACHUSETTS
  
CITY           SKY/WX    TMP DP  RH WIND       PRES   REMARKS
BOSTON         LGT RAIN  41  41 100 W3        29.57F FOG              
BEVERLY        FOG       43  41  93 SW3       29.56F VSB 1/4          
LAWRENCE       FOG       40  39  97 CALM      29.57F VSB 1/2          
BEDFORD        FOG       38  38 100 CALM      29.55F VSB 1/4          
BLUE HILL        N/A     39  39 100 W7        29.53F                  
NORWOOD        CLOUDY    42  39  89 W5        29.56F FOG              
MARSHFIELD     CLOUDY    50  50 100 SW8       29.55F                  
PLYMOUTH       LGT RAIN  47  46  97 S6        29.56F FOG              
TAUNTON        LGT RAIN  48  46  93 S5        29.55F                  
NEW BEDFORD    LGT RAIN  48  48 100 S6        29.57F                  
$$

MAZALL-011500-
CAPE COD AND THE ISLANDS
  
CITY           SKY/WX    TMP DP  RH WIND       PRES   REMARKS
FALMOUTH       LGT RAIN  45  45 100 S5        29.58F VSB 1/2          
HYANNIS        LGT RAIN  46  45  96 S6        29.56F VSB 3/4          
CHATHAM        LGT RAIN  45  44  97 VRB6      29.60F FOG              
PROVINCETOWN   LGT RAIN  45  44  97 S14       29.57F VSB 3/4          
NANTUCKET      LGT RAIN  45  45 100 S7        29.59F VSB 1/2          
MARTHAS VNYRD  LGT RAIN  46  46 100 SW7       29.59F FOG              
$$
 
MAZALL-011500-
CENTRAL AND WESTERN MASSACHUSETTS
  
CITY           SKY/WX    TMP DP  RH WIND       PRES   REMARKS
WORCESTER      FOG       39  36  89 W6        29.55F VSB 1/4          
FITCHBURG      FOG       37  37 100 NW3       29.58F VSB 1/2          
ORANGE         FOG       35  35 100 CALM      29.59F VSB 1/2          
SPRINGFIELD    CLOUDY    36  36 100 CALM      29.59S FOG              
WESTFIELD      CLOUDY    36  35  96 CALM      29.59S                  
NORTH ADAMS    LGT RAIN  39  37  92 CALM      29.58S FOG              
PITTSFIELD     CLOUDY    36  35  96 CALM      29.55F FOG              
$$
 
RIZALL-011500-
RHODE ISLAND
  
CITY           SKY/WX    TMP DP  RH WIND       PRES   REMARKS
PROVIDENCE     LGT RAIN  45  44  97 SE6       29.56F FOG              
NEWPORT        LGT RAIN  44  44 100 S3        29.57F FOG              
BLOCK ISLAND   LGT RAIN  43  43 100 SW15      29.59F FOG              
SMITHFIELD     LGT RAIN  43  43 100 VRB3      29.56F FOG              
WESTERLY       LGT RAIN  43  43 100 SW3       29.59F                  
$$
 
CTZALL-011500-
CONNECTICUT
  
CITY           SKY/WX    TMP DP  RH WIND       PRES   REMARKS
BRADLEY INTL   CLOUDY    37  35  92 CALM      29.60F FOG              
HARTFORD       CLOUDY    38  36  92 CALM      29.61F FOG              
BRIDGEPORT     FOG       41  40  96 SW3       29.61F VSB 1/4          
DANBURY        CLOUDY    40  38  93 CALM      29.62R FOG              
GROTON         LGT RAIN  44  43  96 W5        29.59F FOG              
NEW HAVEN      CLOUDY    41  40  96 CALM      29.60F FOG              
CHESTER        LGT RAIN  43  43 100 CALM      29.59F                  
MERIDEN        CLOUDY    37  36  96 CALM      29.61S FOG              
WILLIMANTIC    FOG       40  39  97 CALM      29.59F VSB 1/2          
OXFORD         FOG       38  38 100 W3        29.60F VSB 1/4          
$$

MEZ002-015-021-024-NHZ003-005-008-011-012-014-VTZ005-008-011500-
NORTHERN NEW ENGLAND
  
CITY           SKY/WX    TMP DP  RH WIND       PRES   REMARKS
PORTLAND ME    FOG       39  39 100 N5        29.59F VSB 1/2          
BANGOR ME      LGT RAIN  37  36  96 SE8       29.63F FOG     WCI  31  
CONCORD NH     FOG       36  34  92 W5        29.58F VSB 1/4          
MANCHESTER NH  FOG       38  37  97 NW5       29.55F VSB 1/4          
NASHUA NH      FOG       37  37 100 NW7       29.59F VSB 1/2 WCI  32  
PORTSMOUTH NH  LGT RAIN  40  40  99 NW3       29.55F VSB 1/2          
JAFFREY NH     FOG       36  34  92 CALM      29.56F VSB 1/2          
KEENE NH       FOG       35  35 100 CALM      29.59F VSB 1            
BURLINGTON VT  CLOUDY    39  35  86 S14       29.51R WCI  31          
MT. WASHINGTON FRZ RAIN  25  25 100 SW36        N/A  VSB 1/16WCI   7  
$$

NYZ052-076-011500-
EASTERN NEW YORK
  
CITY           SKY/WX    TMP DP  RH WIND       PRES   REMARKS
ALBANY         LGT RAIN  38  38 100 S6        29.61R FOG              
NEW YORK CITY  CLOUDY    44  41  89 SW5       29.63S FOG              
$$
 
ANZALL-011500-
MARINE OBSERVATIONS
  
STATION/POSITION TIME  TEMP    WIND        PRES    VSBY  WAVE
                       AIR SEA DIR/SP/G                  HT/PER
                 (UTC) (F)     (DEG/KT/KT) (MB)    (MI)  (FT/S)
BOSTON BUOY      1350   40 38  180/  6/  8 1001.5F         4/ 6
BUZZARDS BAY     1300          200/ 14/ 14 1003.7F
NANTUCKET SOUND  1340      38  190/ 12/ 14   N/A
MASS BAY-STELLWA 1304   42     160/ 12/ 14 1000.7F  1 3/8  5/ 6
ISLE OF SHOALS   1300   42     160/ 10/ 11 1002.1F
S OF BLOCK IS    1326      40                N/A           7/ 8
$$

......................KEY.........................
  SKY/WX - SKY CONDITION/PRESENT WEATHER
  TMP    - TEMPERATURE IN FAHRENHEIT
  DWPT   - DEWPOINT IN FAHRENHEIT
  RH     - RELATIVE HUMIDITY IN PERCENT
  WIND   - DIRECTION AND SPEED IN MPH
  PRES   - MEAN SEA LEVEL PRESSURE IN INCHES OF HG
  WCI    - WIND CHILL INDEX
  VSB    - VISIBILITY IN MILES
  HX     - HEAT INDEX
  TC     - TEMPERATURE IN CELSIUS
  VRB    - VARIABLE WIND DIRECTION
  N/A    - NOT AVAILABLE
  
      

Other recent Regional Weather Roundups

Wed Mar 3, 2:04am

Wed Mar 3, 1:04am

Wed Mar 3, 12:04am

Tue Mar 2, 11:04pm

Tue Mar 2, 10:05pm

Tue Mar 2, 9:04pm

Tue Mar 2, 8:04pm

Tue Mar 2, 7:04pm

Tue Mar 2, 6:04pm

Tue Mar 2, 5:04pm

Tue Mar 2, 4:05pm

Tue Mar 2, 3:04pm

Tue Mar 2, 2:04pm

Tue Mar 2, 1:04pm

Tue Mar 2, 12:04pm

Tue Mar 2, 11:04am

Tue Mar 2, 10:05am

Tue Mar 2, 9:04am

Tue Mar 2, 8:04am

Tue Mar 2, 7:04am

Tue Mar 2, 6:05am

Tue Mar 2, 5:04am

Tue Mar 2, 4:04am

Tue Mar 2, 3:04am

Tue Mar 2, 2:04am

Tue Mar 2, 1:04am

Tue Mar 2, 12:04am

Mon Mar 1, 11:04pm

Mon Mar 1, 10:04pm

Mon Mar 1, 9:04pm

Mon Mar 1, 8:04pm

Mon Mar 1, 7:04pm

Mon Mar 1, 6:04pm

Mon Mar 1, 5:04pm

Mon Mar 1, 4:05pm

Mon Mar 1, 3:05pm

Mon Mar 1, 2:04pm

Mon Mar 1, 1:04pm

Mon Mar 1, 12:04pm

Mon Mar 1, 11:04am

Mon Mar 1, 10:04am

Mon Mar 1, 8:05am

Mon Mar 1, 7:04am

Mon Mar 1, 6:04am

Mon Mar 1, 5:04am

Mon Mar 1, 4:05am

Mon Mar 1, 3:04am

Mon Mar 1, 2:04am

Mon Mar 1, 1:04am

Mon Mar 1, 12:05am

Sun Feb 28, 11:04pm

Sun Feb 28, 10:04pm

Sun Feb 28, 9:04pm

Sun Feb 28, 8:04pm

Sun Feb 28, 7:04pm

Sun Feb 28, 6:05pm

Sun Feb 28, 5:04pm

Sun Feb 28, 4:05pm

Sun Feb 28, 3:04pm

Sun Feb 28, 2:04pm

Sun Feb 28, 1:04pm

Sun Feb 28, 12:04pm

Sun Feb 28, 11:04am

Sun Feb 28, 10:04am

Sun Feb 28, 9:04am

Sun Feb 28, 8:04am

Sun Feb 28, 7:04am

Sun Feb 28, 6:04am

Sun Feb 28, 5:04am

Sun Feb 28, 4:04am

Sun Feb 28, 3:04am

Sun Feb 28, 2:04am

Sun Feb 28, 1:04am

Sun Feb 28, 12:04am

Sat Feb 27, 11:04pm

Sat Feb 27, 10:04pm

Sat Feb 27, 9:04pm

Sat Feb 27, 8:04pm

Sat Feb 27, 7:04pm

Sat Feb 27, 6:04pm

Sat Feb 27, 5:04pm

Sat Feb 27, 4:04pm

Sat Feb 27, 3:05pm

Sat Feb 27, 2:05pm

Sat Feb 27, 1:04pm

Sat Feb 27, 12:04pm

Sat Feb 27, 11:04am

Sat Feb 27, 10:04am

Sat Feb 27, 9:05am

Sat Feb 27, 8:04am

Sat Feb 27, 7:04am

Sat Feb 27, 6:04am

Sat Feb 27, 5:04am

Sat Feb 27, 4:04am

Sat Feb 27, 3:04am

Sat Feb 27, 2:04am

Sat Feb 27, 1:04am

Sat Feb 27, 12:04am

Fri Feb 26, 11:04pm

Fri Feb 26, 10:04pm

Fri Feb 26, 9:04pm

Fri Feb 26, 8:04pm

Fri Feb 26, 7:04pm

Fri Feb 26, 6:04pm

Fri Feb 26, 5:04pm

Fri Feb 26, 4:04pm

Fri Feb 26, 3:04pm

Fri Feb 26, 2:04pm

Fri Feb 26, 1:04pm

Fri Feb 26, 12:04pm

Fri Feb 26, 11:04am

Fri Feb 26, 10:04am

Fri Feb 26, 9:04am

Fri Feb 26, 8:04am

Fri Feb 26, 7:04am

Fri Feb 26, 6:04am

Fri Feb 26, 5:04am

Fri Feb 26, 4:04am

Fri Feb 26, 3:04am

Fri Feb 26, 2:04am

Fri Feb 26, 1:04am

Fri Feb 26, 12:04am

Thu Feb 25, 11:04pm

Thu Feb 25, 10:04pm

Thu Feb 25, 9:04pm

Thu Feb 25, 8:05pm

Thu Feb 25, 7:05pm

Thu Feb 25, 6:04pm

Thu Feb 25, 5:04pm

Thu Feb 25, 4:05pm

Thu Feb 25, 3:05pm

Thu Feb 25, 2:04pm

Thu Feb 25, 1:04pm

Thu Feb 25, 12:05pm

Thu Feb 25, 11:04am

Thu Feb 25, 10:04am

Thu Feb 25, 9:04am

Thu Feb 25, 8:04am

Thu Feb 25, 7:04am

Thu Feb 25, 6:04am

Thu Feb 25, 5:04am

Thu Feb 25, 4:04am

Thu Feb 25, 3:04am

Thu Feb 25, 2:04am

Thu Feb 25, 1:04am

Thu Feb 25, 12:04am

Wed Feb 24, 11:04pm

Wed Feb 24, 10:05pm

Wed Feb 24, 9:04pm

Wed Feb 24, 8:04pm

Wed Feb 24, 7:04pm

Wed Feb 24, 6:04pm

Wed Feb 24, 5:04pm

Wed Feb 24, 4:04pm

Wed Feb 24, 3:04pm

Wed Feb 24, 2:05pm

Wed Feb 24, 1:05pm

Wed Feb 24, 12:05pm

Wed Feb 24, 11:04am

Wed Feb 24, 10:04am

Wed Feb 24, 9:04am

Wed Feb 24, 8:04am

Wed Feb 24, 7:04am

Wed Feb 24, 6:04am

Wed Feb 24, 5:04am

Wed Feb 24, 4:04am

Wed Feb 24, 3:04am

Meta data:

ID: 4526c86b-aa65-43f9-bd47-a6ae2f7dc77f
Link: https://api.weather.gov/products/4526c86b-aa65-43f9-bd47-a6ae2f7dc77f